| time (UTC) | temp F | wind direction | speed MPH | gust MPH | rain 1hr in | rain 24hr in | rain mn in | humidity % | barometer mb |
| 20260508191543 | 56 | 170 | 7.0 | 14.0 | 0.00 | 0.00 | 0.00 | 64 | 1020.9 |
| 20260508190050 | 54 | 250 | 6.0 | 14.0 | 0.00 | 0.00 | 0.00 | 67 | 1020.9 |
| 20260508184635 | 54 | 258 | 5.0 | 17.0 | 0.00 | 0.00 | 0.00 | 68 | 1020.8 |
| 20260508184502 | 54 | 214 | 6.0 | 17.0 | 0.00 | 0.00 | 0.00 | 68 | 1020.8 |
| 20260508183016 | 53 | 224 | 7.0 | 17.0 | 0.00 | 0.00 | 0.00 | 69 | 1021.0 |
| 20260508181526 | 53 | 243 | 4.0 | 15.0 | 0.00 | 0.00 | 0.00 | 69 | 1020.8 |
| 20260508180032 | 54 | 256 | 7.0 | 15.0 | 0.00 | 0.00 | 0.00 | 68 | 1020.3 |
| 20260508174556 | 54 | 210 | 8.0 | 16.0 | 0.00 | 0.00 | 0.00 | 69 | 1020.2 |
| 20260508173054 | 54 | 241 | 7.0 | 12.0 | 0.00 | 0.00 | 0.00 | 70 | 1020.1 |
| 20260508171534 | 53 | 260 | 5.0 | 15.0 | 0.00 | 0.00 | 0.00 | 73 | 1019.8 |
| 20260508170042 | 54 | 214 | 5.0 | 11.0 | 0.00 | 0.00 | 0.00 | 74 | 1019.6 |
| 20260508164533 | 53 | 177 | 5.0 | 15.0 | 0.00 | 0.00 | 0.00 | 75 | 1019.4 |
| 20260508163039 | 52 | 220 | 4.0 | 8.0 | 0.00 | 0.00 | 0.00 | 76 | 1019.4 |
| 20260508161600 | 52 | 201 | 4.0 | 9.0 | 0.00 | 0.00 | 0.00 | 77 | 1019.3 |
| 20260508160007 | 52 | 186 | 1.0 | 7.0 | 0.00 | 0.00 | 0.00 | 79 | 1019.2 |
| 20260508154523 | 51 | 201 | 4.0 | 7.0 | 0.00 | 0.00 | 0.00 | 80 | 1019.3 |
| 20260508153039 | 51 | 212 | 4.0 | 9.0 | 0.00 | 0.00 | 0.00 | 80 | 1019.4 |
| 20260508151552 | 50 | 214 | 3.0 | 10.0 | 0.00 | 0.00 | 0.00 | 82 | 1019.4 |
| 20260508150051 | 50 | 188 | 2.0 | 8.0 | 0.00 | 0.00 | 0.00 | 85 | 1019.5 |
| 20260508144510 | 50 | 184 | 2.0 | 7.0 | 0.00 | 0.00 | 0.00 | 86 | 1019.4 |
| 20260508143026 | 49 | 210 | 3.0 | 8.0 | 0.00 | 0.00 | 0.00 | 86 | 1019.2 |
| 20260508141536 | 49 | 190 | 3.0 | 6.0 | 0.00 | 0.00 | 0.00 | 86 | 1018.9 |
| 20260508140047 | 49 | 168 | 5.0 | 10.0 | 0.00 | 0.00 | 0.00 | 87 | 1018.7 |
| 20260508134605 | 49 | 205 | 5.0 | 9.0 | 0.00 | 0.00 | 0.00 | 87 | 1018.3 |
| 20260508133003 | 49 | 205 | 4.0 | 9.0 | 0.00 | 0.00 | 0.00 | 87 | 1018.1 |
| 20260508131517 | 49 | 211 | 3.0 | 8.0 | 0.00 | 0.00 | 0.00 | 87 | 1017.9 |
| 20260508130029 | 49 | 222 | 4.0 | 10.0 | 0.00 | 0.00 | 0.00 | 87 | 1017.8 |
| 20260508124535 | 49 | 205 | 4.0 | 9.0 | 0.00 | 0.00 | 0.00 | 86 | 1017.5 |
| 20260508123047 | 50 | 204 | 3.0 | 5.0 | 0.00 | 0.00 | 0.00 | 85 | 1017.6 |
| 20260508121559 | 50 | 245 | 3.0 | 7.0 | 0.00 | 0.00 | 0.00 | 85 | 1017.5 |
| 20260508120013 | 50 | 218 | 3.0 | 7.0 | 0.00 | 0.00 | 0.00 | 85 | 1017.3 |
| 20260508114518 | 50 | 220 | 4.0 | 8.0 | 0.00 | 0.00 | 0.00 | 84 | 1017.1 |
| 20260508113005 | 50 | 208 | 2.0 | 8.0 | 0.00 | 0.00 | 0.00 | 85 | 1017.0 |
| 20260508111541 | 50 | 212 | 4.0 | 6.0 | 0.00 | 0.00 | 0.00 | 86 | 1016.9 |
| 20260508110025 | 50 | 216 | 2.0 | 6.0 | 0.00 | 0.00 | 0.00 | 85 | 1016.8 |
| 20260508104538 | 51 | 211 | 2.0 | 5.0 | 0.00 | 0.00 | 0.00 | 86 | 1016.5 |
| 20260508103049 | 51 | 210 | 1.0 | 4.0 | 0.00 | 0.00 | 0.00 | 87 | 1016.4 |
| 20260508101559 | 51 | 218 | 1.0 | 3.0 | 0.00 | 0.00 | 0.00 | 87 | 1016.4 |
| 20260508101502 | 51 | 218 | 1.0 | 3.0 | 0.00 | 0.00 | 0.00 | 87 | 1016.4 |
| 20260508100047 | 51 | 218 | 1.0 | 2.0 | 0.00 | 0.00 | 0.00 | 87 | 1016.4 |
| 20260508094526 | 51 | 218 | 0.0 | 1.0 | 0.00 | 0.00 | 0.00 | 86 | 1016.4 |
| 20260508093035 | 52 | 218 | 0.0 | 2.0 | 0.00 | 0.00 | 0.00 | 85 | 1016.3 |
| 20260508091606 | 52 | 218 | 0.0 | 2.0 | 0.00 | 0.00 | 0.00 | 83 | 1016.3 |
| 20260508084506 | 52 | 218 | 1.0 | 3.0 | 0.00 | 0.00 | 0.00 | 84 | 1016.3 |
| 20260508083030 | 52 | 218 | 0.0 | 0.0 | 0.00 | 0.00 | 0.00 | 82 | 1016.1 |
| 20260508081531 | 53 | 218 | 0.0 | 3.0 | 0.00 | 0.00 | 0.00 | 82 | 1016.1 |
| 20260508080041 | 53 | 218 | 0.0 | 2.0 | 0.00 | 0.00 | 0.00 | 82 | 1016.0 |
| 20260508074550 | 53 | 218 | 0.0 | 1.0 | 0.00 | 0.00 | 0.00 | 81 | 1016.1 |
| 20260508073008 | 54 | 218 | 0.0 | 2.0 | 0.00 | 0.00 | 0.00 | 80 | 1016.0 |
| 20260508071519 | 54 | 218 | 0.0 | 3.0 | 0.00 | 0.00 | 0.00 | 79 | 1016.2 |
| 20260508070018 | 54 | 174 | 0.0 | 2.0 | 0.00 | 0.00 | 0.00 | 78 | 1016.2 |
| 20260508064515 | 54 | 174 | 0.0 | 1.0 | 0.00 | 0.00 | 0.00 | 78 | 1016.2 |
| 20260508063138 | 55 | 174 | 0.0 | 0.0 | 0.00 | 0.00 | 0.00 | 77 | 1016.2 |
| 20260508061509 | 55 | 174 | 1.0 | 5.0 | 0.00 | 0.00 | 0.00 | 75 | 1016.1 |
| 20260508060049 | 56 | 60 | 0.0 | 0.0 | 0.00 | 0.00 | 0.00 | 73 | 1016.1 |
| 20260508054559 | 56 | 60 | 0.0 | 0.0 | 0.00 | 0.00 | 0.00 | 72 | 1016.3 |
| 20260508054501 | 56 | 59 | 0.0 | 0.0 | 0.00 | 0.00 | 0.00 | 72 | 1016.3 |
| 20260508053015 | 56 | 59 | 0.0 | 0.0 | 0.00 | 0.00 | 0.00 | 73 | 1016.3 |
| 20260508051504 | 56 | 60 | 0.0 | 0.0 | 0.00 | 0.00 | 0.00 | 73 | 1016.4 |
| 20260508050021 | 56 | 59 | 0.0 | 0.0 | 0.00 | 0.00 | 0.00 | 72 | 1016.4 |
| 20260508044509 | 56 | 60 | 0.0 | 0.0 | 0.00 | 0.00 | 0.00 | 71 | 1016.4 |
| 20260508043043 | 56 | 59 | 0.0 | 0.0 | 0.00 | 0.00 | 0.00 | 70 | 1016.4 |
| 20260508041552 | 57 | 59 | 0.0 | 0.0 | 0.00 | 0.00 | 0.00 | 69 | 1016.4 |
| 20260508040003 | 58 | 59 | 0.0 | 0.0 | 0.00 | 0.00 | 0.00 | 66 | 1016.4 |
| 20260508034523 | 59 | 60 | 0.0 | 0.0 | 0.00 | 0.00 | 0.00 | 66 | 1016.3 |
| 20260508033020 | 60 | 60 | 0.0 | 0.0 | 0.00 | 0.00 | 0.00 | 64 | 1016.2 |
| 20260508031523 | 61 | 59 | 0.0 | 0.0 | 0.00 | 0.00 | 0.00 | 64 | 1016.3 |
| 20260508030043 | 61 | 60 | 0.0 | 2.0 | 0.00 | 0.00 | 0.00 | 63 | 1016.2 |
| 20260508024522 | 62 | 59 | 0.0 | 2.0 | 0.00 | 0.00 | 0.00 | 61 | 1016.3 |
| 20260508023057 | 62 | 59 | 0.0 | 3.0 | 0.00 | 0.00 | 0.00 | 60 | 1016.4 |
| 20260508021517 | 63 | 59 | 0.0 | 3.0 | 0.00 | 0.00 | 0.00 | 59 | 1016.5 |
| 20260508020020 | 64 | 71 | 3.0 | 5.0 | 0.00 | 0.00 | 0.00 | 56 | 1016.5 |
| 20260508014600 | 64 | 32 | 1.0 | 4.0 | 0.00 | 0.00 | 0.00 | 55 | 1016.7 |
| 20260508014513 | 64 | 32 | 1.0 | 4.0 | 0.00 | 0.00 | 0.00 | 56 | 1016.7 |
| 20260508013012 | 65 | 359 | 1.0 | 3.0 | 0.00 | 0.00 | 0.00 | 55 | 1016.7 |
| 20260508011531 | 64 | 277 | 0.0 | 5.0 | 0.00 | 0.00 | 0.00 | 56 | 1016.9 |
| 20260508010027 | 65 | 51 | 1.0 | 3.0 | 0.00 | 0.00 | 0.00 | 54 | 1017.0 |
| 20260508004550 | 66 | 347 | 2.0 | 6.0 | 0.00 | 0.00 | 0.00 | 51 | 1017.1 |
| 20260508003103 | 64 | 60 | 1.0 | 9.0 | 0.00 | 0.00 | 0.00 | 54 | 1017.3 |
| 20260508001514 | 65 | 33 | 1.0 | 4.0 | 0.00 | 0.00 | 0.00 | 52 | 1017.3 |
| 20260508000056 | 66 | 283 | 1.0 | 4.0 | 0.00 | 0.00 | 0.00 | 53 | 1017.5 |
| 20260507234538 | 65 | 276 | 0.0 | 5.0 | 0.00 | 0.00 | 0.00 | 53 | 1017.4 |
| 20260507233038 | 66 | 42 | 1.0 | 6.0 | 0.00 | 0.00 | 0.00 | 52 | 1017.5 |
| 20260507231542 | 65 | 284 | 2.0 | 7.0 | 0.00 | 0.00 | 0.00 | 53 | 1017.7 |
| 20260507230107 | 64 | 354 | 1.0 | 7.0 | 0.00 | 0.00 | 0.00 | 56 | 1017.8 |
| 20260507224511 | 63 | 16 | 3.0 | 8.0 | 0.00 | 0.00 | 0.00 | 57 | 1018.0 |
| 20260507223043 | 64 | 302 | 0.0 | 6.0 | 0.00 | 0.00 | 0.00 | 58 | 1018.1 |
| 20260507221532 | 63 | 340 | 2.0 | 11.0 | 0.00 | 0.00 | 0.00 | 59 | 1018.3 |
| 20260507220045 | 62 | 288 | 2.0 | 10.0 | 0.00 | 0.00 | 0.00 | 60 | 1018.4 |
| 20260507214547 | 63 | 316 | 2.0 | 10.0 | 0.00 | 0.00 | 0.00 | 58 | 1018.5 |
| 20260507213121 | 63 | 239 | 0.0 | 5.0 | 0.00 | 0.00 | 0.00 | 61 | 1018.7 |
| 20260507211600 | 62 | 97 | 3.0 | 10.0 | 0.00 | 0.00 | 0.00 | 60 | 1018.8 |
| 20260507211502 | 62 | 99 | 2.0 | 10.0 | 0.00 | 0.00 | 0.00 | 59 | 1018.8 |
| 20260507210008 | 61 | 334 | 2.0 | 8.0 | 0.00 | 0.00 | 0.00 | 63 | 1019.0 |
| 20260507204520 | 60 | 281 | 2.0 | 8.0 | 0.00 | 0.00 | 0.00 | 63 | 1019.2 |
| 20260507203034 | 59 | 164 | 0.0 | 7.0 | 0.00 | 0.00 | 0.00 | 65 | 1019.3 |
| 20260507201540 | 60 | 262 | 0.0 | 4.0 | 0.00 | 0.00 | 0.00 | 64 | 1019.4 |
| 20260507200055 | 59 | 278 | 2.0 | 8.0 | 0.00 | 0.00 | 0.00 | 66 | 1019.6 |
| 20260507194552 | 59 | 233 | 2.0 | 4.0 | 0.00 | 0.00 | 0.00 | 66 | 1019.6 |
| 20260507193100 | 58 | 261 | 2.0 | 4.0 | 0.00 | 0.00 | 0.00 | 67 | 1019.7 |
| 20260507193006 | 58 | 260 | 1.0 | 4.0 | 0.00 | 0.00 | 0.00 | 67 | 1019.7 |